sat.trackr.live / text

‹ back to catalog

LIZZIESAT-2 (LS-2)

NORAD 62383 · 2024-247G

PAYLOAD ACTIVE UNKNOWN

§ Identity

Operator
Country
US
Launch date
2024-12-21
Launch site
AFWTR
Launch vehicle
Mass (kg)
RCS (m²)

External: N2YO · Heavens-Above · Gunter

§ Orbital elements

Epoch: 2026-05-25T03:09:56.695680Z

Period
94.15 min
Inclination
44.9940°
Eccentricity
0.0001579
Mean motion
15.29467568 rev/d
Perigee alt
476.3 km
Apogee alt
478.5 km
Semi-major
6,855.5 km
B*
2.4638e-4
RAAN
57.7919°
Arg perigee
83.2368°
Mean anomaly
276.8696°
Rev number
7,944

§ Raw data

LIZZIESAT-2 (LS-2)1 62383U 24247G   26145.13190620  .00006878  00000+0  24638-3 0  99952 62383  44.9940  57.7919 0001579  83.2368 276.8696 15.29467568 79445

JSON: /api/v1/satellites/62383 · /tle

For live sub-satellite position, see the globe view (requires WebGL).

§ Visibility from observer

Set your observer location to see the next 7 days of passes ≥ 10°. The values pass through the URL so the page stays shareable.

No JS? Fill the form by hand. The geolocation button needs JavaScript.

§ Radio — SatNOGS DB

ModeDescriptionDownlinkUplink
FM Mode S - Transmitter 2.262 GHz
FM Mode S - Transmitter 2.201 GHz
FM Mode S - Transmitter 2.283 GHz
Mode X - Transmitter 8.379 GHz
FM Mode X - Transmitter 8.046 GHz

5 transmitters · refreshed weekly from db.satnogs.org